CW8398 Weather Reports


Display with metric or nautical units.
time (UTC)temp
F
wind
direction
speed
MPH
gust
MPH
rain 1hr
in
rain 24hr
in
rain mn
in
humidity
%
barometer
mb
20260506211302 33 173 0.0 0.0 0.00 0.00 0.00 83 1011.9
20260506210302 33 173 0.0 0.0 0.00 0.00 0.00 82 1011.9
20260506205802 33 173 0.0 0.0 0.00 0.00 0.00 81 1011.9
20260506205305 34 173 0.0 0.0 0.00 0.00 0.00 80 1011.9
20260506204802 34 173 0.0 0.0 0.00 0.00 0.00 80 1011.9
20260506204302 34 173 0.0 0.0 0.00 0.00 0.00 81 1011.9
20260506203802 34 173 0.0 0.0 0.00 0.00 0.00 81 1011.9
20260506203302 34 173 0.0 0.0 0.00 0.00 0.00 79 1012.0
20260506202802 34 173 0.0 0.0 0.00 0.00 0.00 78 1012.0
20260506201802 35 173 0.0 0.0 0.00 0.00 0.00 77 1012.0
20260506201301 35 173 0.0 0.0 0.00 0.00 0.00 78 1012.0
20260506200302 35 173 0.0 0.0 0.00 0.00 0.00 77 1012.0
20260506195802 35 173 0.0 1.0 0.00 0.00 0.00 76 1012.1
20260506195305 35 173 0.0 1.0 0.00 0.00 0.00 76 1012.1
20260506194802 35 173 0.0 1.0 0.00 0.00 0.00 75 1012.1
20260506193802 36 173 0.0 1.0 0.00 0.00 0.00 74 1012.1
20260506193302 36 173 0.0 1.0 0.00 0.00 0.00 74 1012.1
20260506192802 36 173 0.0 1.0 0.00 0.00 0.00 73 1012.1
20260506192305 37 173 0.0 0.0 0.00 0.00 0.00 72 1012.1
20260506191802 37 173 0.0 2.0 0.00 0.00 0.00 72 1012.1
20260506190802 37 173 0.0 1.0 0.00 0.00 0.00 70 1012.1
20260506190302 38 173 0.0 1.0 0.00 0.00 0.00 69 1012.1
20260506185802 38 173 0.0 0.0 0.00 0.00 0.00 67 1012.1
20260506185306 39 173 0.0 1.0 0.00 0.00 0.00 65 1012.1
20260506184802 39 173 0.0 0.0 0.00 0.00 0.00 64 1012.1
20260506183802 40 173 0.0 0.0 0.00 0.00 0.00 62 1012.1
20260506183302 41 173 0.0 0.0 0.00 0.00 0.00 61 1011.9
20260506182802 41 173 0.0 1.0 0.00 0.00 0.00 59 1011.9
20260506182306 42 173 0.0 1.0 0.00 0.00 0.00 58 1011.9
20260506180802 43 157 1.0 3.0 0.00 0.00 0.00 54 1011.9
20260506180302 44 153 1.0 5.0 0.00 0.00 0.00 54 1011.9
20260506175802 44 165 1.0 5.0 0.00 0.00 0.00 53 1011.9
20260506175306 44 171 2.0 3.0 0.00 0.00 0.00 53 1011.8
20260506174802 44 186 2.0 5.0 0.00 0.00 0.00 52 1011.8
20260506174302 45 167 2.0 5.0 0.00 0.00 0.00 52 1011.9
20260506173802 45 166 2.0 6.0 0.00 0.00 0.00 52 1011.8
20260506173302 45 163 4.0 8.0 0.00 0.00 0.00 51 1011.8
20260506172802 45 162 3.0 7.0 0.00 0.00 0.00 49 1011.8
20260506172306 46 176 3.0 6.0 0.00 0.00 0.00 49 1011.8
20260506171802 46 164 5.0 9.0 0.00 0.00 0.00 48 1011.8
20260506171302 46 168 3.0 6.0 0.00 0.00 0.00 48 1011.8
20260506170802 46 168 5.0 7.0 0.00 0.00 0.00 48 1011.8
20260506170302 46 178 2.0 5.0 0.00 0.00 0.00 47 1011.8
20260506165305 46 200 5.0 10.0 0.00 0.00 0.00 46 1011.8
20260506164302 47 170 5.0 9.0 0.00 0.00 0.00 45 1011.8
20260506163802 47 168 4.0 10.0 0.00 0.00 0.00 45 1011.8
20260506163301 47 183 3.0 8.0 0.00 0.00 0.00 44 1011.8
20260506162802 47 155 3.0 8.0 0.00 0.00 0.00 42 1011.8
20260506162306 48 150 6.0 10.0 0.00 0.00 0.00 40 1011.8
20260506161802 48 161 3.0 7.0 0.00 0.00 0.00 44 1011.8
20260506161303 48 173 3.0 8.0 0.00 0.00 0.00 45 1011.8
20260506160802 48 160 2.0 9.0 0.00 0.00 0.00 44 1011.8
20260506155802 48 170 5.0 10.0 0.00 0.00 0.00 42 1011.7
20260506155305 48 180 3.0 6.0 0.00 0.00 0.00 41 1011.7
20260506154802 48 187 3.0 9.0 0.00 0.00 0.00 41 1011.7
20260506153802 48 166 4.0 12.0 0.00 0.00 0.00 40 1011.7
20260506153302 48 178 3.0 8.0 0.00 0.00 0.00 41 1011.8
20260506152802 49 189 5.0 9.0 0.00 0.00 0.00 38 1011.8
20260506152305 49 174 3.0 3.0 0.00 0.00 0.00 41 1011.8
20260506151803 50 175 3.0 10.0 0.00 0.00 0.00 41 1011.8
20260506151302 49 185 4.0 9.0 0.00 0.00 0.00 41 1011.8
20260506150802 49 138 3.0 12.0 0.00 0.00 0.00 38 1011.8
20260506150304 50 185 2.0 9.0 0.00 0.00 0.00 38 1011.8
20260506145802 49 167 2.0 6.0 0.00 0.00 0.00 39 1011.8
20260506145305 49 188 2.0 6.0 0.00 0.00 0.00 40 1011.8
20260506144802 48 157 3.0 9.0 0.00 0.00 0.00 39 1011.8
20260506144302 49 176 4.0 10.0 0.00 0.00 0.00 39 1011.8
20260506143802 49 182 1.0 6.0 0.00 0.00 0.00 38 1011.8
20260506143302 49 171 2.0 7.0 0.00 0.00 0.00 38 1011.8
20260506142802 49 138 3.0 12.0 0.00 0.00 0.00 38 1011.8
20260506141802 50 180 2.0 10.0 0.00 0.00 0.00 38 1011.8
20260506141302 50 171 3.0 10.0 0.00 0.00 0.00 37 1011.8
20260506140802 50 176 2.0 12.0 0.00 0.00 0.00 36 1011.8
20260506140302 51 146 2.0 8.0 0.00 0.00 0.00 34 1011.8
20260506135802 50 159 4.0 12.0 0.00 0.00 0.00 34 1011.8
20260506134802 50 166 3.0 12.0 0.00 0.00 0.00 37 1011.7
20260506134302 50 167 4.0 12.0 0.00 0.00 0.00 35 1011.7
20260506133803 51 173 5.0 12.0 0.00 0.00 0.00 37 1011.7
20260506133302 52 180 2.0 3.0 0.00 0.00 0.00 37 1011.8
20260506132802 51 177 4.0 14.0 0.00 0.00 0.00 35 1011.8
20260506132305 51 156 5.0 10.0 0.00 0.00 0.00 36 1011.8
20260506131802 51 172 4.0 12.0 0.00 0.00 0.00 38 1011.8
20260506131302 51 162 5.0 12.0 0.00 0.00 0.00 38 1011.8
20260506130802 51 190 5.0 9.0 0.00 0.00 0.00 36 1011.8
20260506130302 52 152 3.0 5.0 0.00 0.00 0.00 37 1011.8
20260506125802 52 164 4.0 10.0 0.00 0.00 0.00 36 1011.8
20260506124803 52 40 2.0 6.0 0.00 0.00 0.00 33 1011.8
20260506123302 54 293 2.0 5.0 0.00 0.00 0.00 33 1012.0
20260506122802 53 191 2.0 6.0 0.00 0.00 0.00 35 1012.0
20260506122305 53 79 2.0 6.0 0.00 0.00 0.00 35 1012.0
20260506121802 53 130 2.0 7.0 0.00 0.00 0.00 36 1012.0
20260506121303 53 168 2.0 6.0 0.00 0.00 0.00 36 1012.0
20260506120803 53 65 2.0 9.0 0.00 0.00 0.00 36 1012.0
20260506120302 54 158 1.0 8.0 0.00 0.00 0.00 38 1012.0
20260506115802 53 119 2.0 6.0 0.00 0.00 0.00 39 1012.0
20260506115306 53 315 2.0 7.0 0.00 0.00 0.00 38 1012.0
20260506114802 53 134 2.0 7.0 0.00 0.00 0.00 38 1012.0
20260506114302 53 62 3.0 8.0 0.00 0.00 0.00 37 1012.0
20260506113302 53 113 2.0 6.0 0.00 0.00 0.00 36 1012.0
20260506112802 53 157 2.0 6.0 0.00 0.00 0.00 37 1012.0
20260506112305 52 169 2.0 10.0 0.00 0.00 0.00 35 1012.0
20260506111803 53 165 2.0 7.0 0.00 0.00 0.00 37 1012.0
20260506110803 53 146 2.0 7.0 0.00 0.00 0.00 38 1012.0
20260506110302 53 145 2.0 7.0 0.00 0.00 0.00 39 1012.0
20260506105803 53 73 3.0 6.0 0.00 0.00 0.00 38 1012.0
20260506105305 53 145 1.0 6.0 0.00 0.00 0.00 41 1012.1
20260506103802 52 65 3.0 9.0 0.00 0.00 0.00 42 1012.2
20260506103302 52 155 3.0 8.0 0.00 0.00 0.00 41 1012.2
20260506102802 53 195 3.0 9.0 0.00 0.00 0.00 41 1012.2
20260506102305 52 153 3.0 9.0 0.00 0.00 0.00 38 1012.4
20260506101802 52 157 3.0 6.0 0.00 0.00 0.00 37 1012.4
20260506100302 52 351 2.0 5.0 0.00 0.00 0.00 36 1012.4
20260506095803 52 335 2.0 3.0 0.00 0.00 0.00 34 1012.4
20260506094802 51 32 1.0 3.0 0.00 0.00 0.00 35 1012.4
20260506094302 52 32 1.0 3.0 0.00 0.00 0.00 36 1012.4
20260506093802 50 19 0.0 1.0 0.00 0.00 0.00 34 1012.4
20260506093302 51 351 1.0 3.0 0.00 0.00 0.00 33 1012.3
20260506092802 51 15 2.0 3.0 0.00 0.00 0.00 32 1012.3
20260506092302 51 30 0.0 3.0 0.00 0.00 0.00 37 1012.3
20260506091802 50 322 1.0 7.0 0.00 0.00 0.00 36 1012.3
20260506091302 51 7 2.0 7.0 0.00 0.00 0.00 37 1012.3
20260506090802 51 11 2.0 3.0 0.00 0.00 0.00 38 1012.3
20260506090302 50 19 2.0 3.0 0.00 0.00 0.00 37 1012.3
20260506085305 50 30 1.0 3.0 0.00 0.00 0.00 40 1012.3
20260506084302 49 356 2.0 3.0 0.00 0.00 0.00 40 1012.3
20260506083302 49 48 2.0 3.0 0.00 0.00 0.00 42 1012.2
20260506082802 49 22 0.0 3.0 0.00 0.00 0.00 44 1012.2
20260506082304 48 25 2.0 3.0 0.00 0.00 0.00 45 1012.2
20260506081802 48 3 1.0 2.0 0.00 0.00 0.00 47 1012.2
20260506081302 47 39 2.0 3.0 0.00 0.00 0.00 46 1012.0
20260506080802 47 40 2.0 3.0 0.00 0.00 0.00 47 1012.0
20260506073302 46 0 2.0 3.0 0.00 0.00 0.00 53 1010.1
20260506072803 46 20 1.0 3.0 0.00 0.00 0.00 54 1010.1
20260506072305 45 24 2.0 3.0 0.00 0.00 0.00 55 1010.1
20260506071803 45 24 1.0 3.0 0.00 0.00 0.00 57 1010.1
20260506071302 45 16 1.0 3.0 0.00 0.00 0.00 58 1010.1
20260506070802 45 40 2.0 3.0 0.00 0.00 0.00 58 1010.1
20260506070303 44 11 2.0 3.0 0.00 0.00 0.00 58 1010.1
20260506062305 44 3 0.0 2.0 0.00 0.00 0.00 65 1010.1
20260506061302 43 290 1.0 3.0 0.00 0.00 0.00 65 1010.1
20260506060803 43 288 1.0 3.0 0.00 0.00 0.00 66 1010.1
20260506060302 43 303 1.0 3.0 0.00 0.00 0.00 66 1010.1
20260506051302 41 276 1.0 3.0 0.00 0.00 0.00 76 1010.1
20260506050303 40 293 1.0 3.0 0.00 0.00 0.00 78 1010.1
20260506044302 39 355 1.0 3.0 0.00 0.00 0.00 84 1010.1
20260506043803 38 307 2.0 3.0 0.00 0.00 0.00 86 1010.1
20260506043302 38 358 1.0 3.0 0.00 0.00 0.00 88 1010.1
20260506042803 37 324 1.0 3.0 0.00 0.00 0.00 90 1010.1
20260506042305 36 269 2.0 3.0 0.00 0.00 0.00 93 1010.1
20260506041802 35 304 1.0 2.0 0.00 0.00 0.00 95 1010.1
20260506041303 35 206 0.0 1.0 0.00 0.00 0.00 95 1010.1
20260506040802 34 206 0.0 1.0 0.00 0.00 0.00 95 1010.1
20260506040303 34 206 0.0 1.0 0.00 0.00 0.00 95 1010.1
20260506035802 34 206 0.0 1.0 0.00 0.00 0.00 95 1010.1
20260506035305 34 207 0.0 2.0 0.00 0.00 0.00 95 1010.1
20260506034802 34 205 1.0 3.0 0.00 0.00 0.00 95 1010.1
20260506034303 33 252 1.0 2.0 0.00 0.00 0.00 95 1010.1
20260506033802 33 252 0.0 0.0 0.00 0.00 0.00 95 1010.1
20260506032803 33 252 0.0 2.0 0.00 0.00 0.00 95 1010.1
20260506032305 33 252 1.0 2.0 0.00 0.00 0.00 94 1010.1
20260506031802 33 252 0.0 1.0 0.00 0.00 0.00 95 1010.1
20260506031303 34 252 0.0 1.0 0.00 0.00 0.00 95 1010.1
20260506030802 34 252 1.0 2.0 0.00 0.00 0.00 95 1010.1
20260506030302 34 260 0.0 1.0 0.00 0.00 0.00 95 1010.1
20260506025803 34 260 0.0 2.0 0.00 0.00 0.00 95 1010.1
20260506025305 34 260 0.0 1.0 0.00 0.00 0.00 95 1010.1
20260506024803 34 279 0.0 2.0 0.00 0.00 0.00 96 1010.1
20260506024303 34 331 0.0 1.0 0.00 0.00 0.00 95 1010.1
20260506023802 34 331 0.0 1.0 0.00 0.00 0.00 95 1010.1
20260506023303 34 331 0.0 1.0 0.00 0.00 0.00 95 1010.1
20260506022803 35 331 0.0 1.0 0.00 0.00 0.00 95 1010.1
20260506022305 35 331 0.0 1.0 0.00 0.00 0.00 96 1010.1
20260506021802 35 301 0.0 2.0 0.00 0.00 0.00 96 1010.0
20260506020802 34 227 0.0 1.0 0.00 0.00 0.00 95 1009.7
20260506020303 34 217 0.0 0.0 0.00 0.00 0.00 95 1009.7
20260506015802 34 217 0.0 0.0 0.00 0.00 0.00 95 1009.7
20260506014803 34 217 0.0 0.0 0.00 0.00 0.00 95 1009.7
20260506014302 34 217 0.0 1.0 0.00 0.00 0.00 95 1009.7
20260506013803 34 217 0.0 0.0 0.00 0.00 0.00 95 1009.7
20260506013302 34 217 0.0 0.0 0.00 0.00 0.00 95 1009.7
20260506012803 35 217 0.0 1.0 0.00 0.00 0.00 95 1009.7
20260506011802 35 217 0.0 1.0 0.00 0.00 0.00 95 1009.6
20260506011303 35 217 0.0 1.0 0.00 0.00 0.00 95 1009.5
20260506010803 35 217 0.0 1.0 0.00 0.00 0.00 95 1009.5
20260506005803 34 215 0.0 1.0 0.00 0.00 0.00 95 1009.3
20260506005305 34 215 1.0 2.0 0.00 0.00 0.00 95 1009.3
20260506004802 34 215 0.0 1.0 0.00 0.00 0.00 95 1008.9
20260506004303 35 215 0.0 1.0 0.00 0.00 0.00 95 1008.9
20260506003803 35 215 0.0 1.0 0.00 0.00 0.00 95 1008.9
20260506003303 36 215 1.0 3.0 0.00 0.00 0.00 95 1008.9
20260506002305 36 215 0.0 3.0 0.00 0.00 0.00 95 1008.9
20260506001303 35 223 0.0 0.0 0.00 0.00 0.00 95 1008.9
20260506000803 34 223 0.0 1.0 0.00 0.00 0.00 95 1008.9
20260506000302 34 223 0.0 2.0 0.00 0.00 0.00 95 1008.9
20260505235305 34 223 1.0 2.0 0.00 0.00 0.00 95 1008.9
20260505234802 34 223 1.0 3.0 0.00 0.00 0.00 95 1008.9
20260505234302 34 223 1.0 2.0 0.00 0.00 0.00 94 1008.9
20260505233803 35 223 1.0 2.0 0.00 0.00 0.00 94 1008.8
20260505233303 35 223 0.0 2.0 0.00 0.00 0.00 94 1008.8
20260505232803 36 223 0.0 0.0 0.00 0.00 0.00 95 1008.8
20260505232305 36 223 0.0 1.0 0.00 0.00 0.00 95 1008.8
20260505231802 36 223 0.0 1.0 0.00 0.00 0.00 94 1008.8
20260505231303 37 223 1.0 2.0 0.00 0.00 0.00 95 1008.8
20260505230803 38 265 0.0 1.0 0.00 0.00 0.00 95 1008.8
20260505230303 38 265 1.0 2.0 0.00 0.00 0.00 95 1008.8
20260505225802 38 245 0.0 2.0 0.00 0.00 0.00 95 1008.8
20260505225305 37 240 0.0 1.0 0.00 0.00 0.00 95 1008.5
20260505224303 37 162 0.0 1.0 0.00 0.00 0.00 94 1008.5
20260505223803 37 161 0.0 1.0 0.00 0.00 0.00 94 1008.5
20260505223303 37 161 0.0 1.0 0.00 0.00 0.00 95 1008.5
20260505222803 36 162 0.0 1.0 0.00 0.00 0.00 94 1008.5
20260505222305 36 162 0.0 1.0 0.00 0.00 0.00 94 1008.5
20260505221802 37 162 0.0 0.0 0.00 0.00 0.00 94 1008.5
20260505221303 37 162 0.0 0.0 0.00 0.00 0.00 94 1008.5
20260505220816 37 162 0.0 0.0 0.00 0.00 0.00 94 1008.5
20260505220302 37 162 0.0 0.0 0.00 0.00 0.00 94 1008.3
20260505215803 37 161 0.0 0.0 0.00 0.00 0.00 94 1008.3
20260505215305 38 162 0.0 2.0 0.00 0.00 0.00 94 1008.3
20260505214803 38 162 0.0 2.0 0.00 0.00 0.00 94 1008.3
20260505214302 38 162 0.0 2.0 0.00 0.00 0.00 94 1008.3
20260505213803 38 162 0.0 0.0 0.00 0.00 0.00 94 1008.3
20260505213302 38 162 0.0 1.0 0.00 0.00 0.00 94 1008.2
20260505212802 37 38 1.0 2.0 0.00 0.00 0.00 94 1008.2
20260505211803 38 34 0.0 2.0 0.00 0.00 0.00 93 1008.1